VIV4309 MMTM-MMMY

Flight info

Callsign VIV4309
Flight time 0h 54m
Altitude 34000
Route TAM1A TAM UJ15 CVM UJ15E RETOS RETOS1A
Aircraft A321/M-SDE3FGHIRWY/LB1

Departure

Time 2026-05-04 23:53
Airport General Francisco Javier Mina International Airport (MMTM)

Arrival

Time 2026-05-05 00:47
Airport Monterrey International Airport (MMMY)
Time Latitude Longitude Altitude Speed Heading
2026-05-04 23:30 22.29029 -97.86971 85 ft 0 kts 235°
2026-05-04 23:46 22.29031 -97.86968 80 ft 3 kts 235°
2026-05-04 23:46 22.29041 -97.86951 84 ft 3 kts 242°
2026-05-04 23:46 22.29047 -97.86932 81 ft 3 kts 287°
2026-05-04 23:46 22.29044 -97.86923 81 ft 0 kts 318°
2026-05-04 23:49 22.29088 -97.86939 83 ft 13 kts 12°
2026-05-04 23:50 22.29209 -97.86884 82 ft 25 kts
2026-05-04 23:50 22.29395 -97.86900 82 ft 26 kts 356°
2026-05-04 23:50 22.29570 -97.86945 84 ft 26 kts 331°
2026-05-04 23:50 22.29723 -97.87055 80 ft 30 kts 325°
2026-05-04 23:51 22.29903 -97.87192 86 ft 32 kts 324°
2026-05-04 23:51 22.30077 -97.87332 84 ft 26 kts 324°
2026-05-04 23:51 22.30144 -97.87411 87 ft 8 kts 360°
2026-05-04 23:51 22.30155 -97.87383 86 ft 4 kts 130°
2026-05-04 23:52 22.30146 -97.87373 87 ft 0 kts 136°
2026-05-04 23:52 22.30070 -97.87310 87 ft 46 kts 143°
2026-05-04 23:52 22.29553 -97.86924 83 ft 131 kts 144°
2026-05-04 23:52 22.28642 -97.86240 297 ft 175 kts 140°
2026-05-04 23:53 22.27615 -97.85501 1120 ft 179 kts 143°
2026-05-04 23:53 22.26617 -97.84687 2012 ft 186 kts 139°
2026-05-04 23:53 22.25555 -97.83722 2652 ft 212 kts 139°
2026-05-04 23:53 22.24376 -97.82633 3069 ft 235 kts 137°
2026-05-04 23:54 22.23452 -97.81137 3582 ft 250 kts 109°
2026-05-04 23:54 22.23371 -97.79226 4202 ft 263 kts 77°
2026-05-04 23:54 22.24308 -97.77503 4784 ft 276 kts 43°
2026-05-04 23:54 22.26028 -97.76602 5384 ft 280 kts
2026-05-04 23:55 22.27920 -97.76875 6038 ft 276 kts 332°
2026-05-04 23:55 22.29456 -97.78073 6698 ft 272 kts 317°
2026-05-04 23:55 22.32181 -97.80942 7888 ft 277 kts 312°
2026-05-04 23:56 22.33550 -97.82431 8426 ft 282 kts 313°
2026-05-04 23:56 22.34934 -97.83902 9005 ft 284 kts 314°
2026-05-04 23:56 22.36362 -97.85388 9600 ft 285 kts 314°
2026-05-04 23:56 22.37827 -97.86889 10119 ft 291 kts 315°
2026-05-04 23:57 22.39328 -97.88417 10216 ft 310 kts 314°
2026-05-04 23:57 22.40942 -97.90055 10343 ft 327 kts 315°
2026-05-04 23:57 22.42627 -97.91761 10674 ft 335 kts 315°
2026-05-04 23:57 22.44339 -97.93490 11158 ft 338 kts 315°
2026-05-04 23:58 22.46066 -97.95231 11722 ft 340 kts 315°
2026-05-04 23:58 22.47804 -97.96984 12204 ft 343 kts 315°
2026-05-04 23:58 22.49562 -97.98760 12673 ft 348 kts 315°
2026-05-04 23:58 22.51333 -98.00553 13177 ft 351 kts 315°
2026-05-04 23:59 22.53119 -98.02361 13702 ft 353 kts 315°
2026-05-04 23:59 22.54918 -98.04184 14176 ft 355 kts 316°
2026-05-04 23:59 22.56724 -98.06016 14658 ft 357 kts 316°
2026-05-04 23:59 22.58544 -98.07867 15130 ft 360 kts 316°
2026-05-05 00:00 22.60366 -98.09720 15715 ft 359 kts 316°
2026-05-05 00:00 22.60983 -98.10347 15896 ft 360 kts 316°
2026-05-05 00:00 22.64147 -98.13275 16759 ft 363 kts 323°
2026-05-05 00:00 22.66210 -98.14857 17257 ft 365 kts 324°
2026-05-05 00:01 22.68288 -98.16450 17757 ft 367 kts 324°
2026-05-05 00:01 22.70376 -98.18057 18246 ft 369 kts 324°
2026-05-05 00:01 22.72467 -98.19668 18659 ft 371 kts 324°
2026-05-05 00:01 22.74578 -98.21295 19050 ft 374 kts 324°
2026-05-05 00:02 22.76707 -98.22934 19445 ft 376 kts 324°
2026-05-05 00:02 22.78849 -98.24585 19831 ft 379 kts 323°
2026-05-05 00:02 22.81001 -98.26248 20199 ft 382 kts 323°
2026-05-05 00:02 22.83175 -98.27927 20577 ft 385 kts 323°
2026-05-05 00:03 22.85358 -98.29612 20958 ft 387 kts 323°
2026-05-05 00:03 22.87527 -98.31286 21313 ft 390 kts 323°
2026-05-05 00:03 22.89750 -98.32998 21687 ft 392 kts 323°
2026-05-05 00:03 22.91982 -98.34716 22054 ft 395 kts 323°
2026-05-05 00:04 22.94228 -98.36449 22396 ft 398 kts 323°
2026-05-05 00:04 22.96492 -98.38196 22743 ft 401 kts 323°
2026-05-05 00:04 22.98769 -98.39956 23086 ft 403 kts 323°
2026-05-05 00:04 23.01059 -98.41728 23427 ft 406 kts 323°
2026-05-05 00:05 23.03361 -98.43512 23706 ft 408 kts 323°
2026-05-05 00:05 23.05678 -98.45310 24009 ft 410 kts 323°
2026-05-05 00:05 23.08002 -98.47112 24322 ft 411 kts 323°
2026-05-05 00:05 23.10335 -98.48925 24624 ft 413 kts 323°
2026-05-05 00:06 23.12669 -98.50741 24945 ft 414 kts 323°
2026-05-05 00:06 23.15017 -98.52569 25262 ft 416 kts 323°
2026-05-05 00:06 23.17372 -98.54400 25580 ft 417 kts 323°
2026-05-05 00:06 23.19734 -98.56234 25907 ft 418 kts 322°
2026-05-05 00:07 23.22102 -98.58071 26284 ft 418 kts 323°
2026-05-05 00:07 23.24468 -98.59906 26615 ft 419 kts 322°
2026-05-05 00:07 23.26842 -98.61750 26930 ft 420 kts 322°
2026-05-05 00:07 23.29222 -98.63601 27242 ft 421 kts 322°
2026-05-05 00:08 23.31607 -98.65459 27557 ft 423 kts 322°
2026-05-05 00:08 23.34001 -98.67324 27840 ft 424 kts 322°
2026-05-05 00:08 23.36403 -98.69195 28125 ft 426 kts 322°
2026-05-05 00:08 23.38815 -98.71075 28414 ft 427 kts 322°
2026-05-05 00:09 23.41237 -98.72964 28682 ft 429 kts 322°
2026-05-05 00:09 23.43667 -98.74863 28949 ft 431 kts 322°
2026-05-05 00:09 23.46106 -98.76769 29213 ft 432 kts 322°
2026-05-05 00:09 23.48550 -98.78676 29478 ft 434 kts 322°
2026-05-05 00:10 23.51010 -98.80595 29760 ft 435 kts 322°
2026-05-05 00:10 23.53469 -98.82516 30040 ft 435 kts 322°
2026-05-05 00:10 23.55930 -98.84444 30264 ft 436 kts 322°
2026-05-05 00:10 23.58365 -98.86354 30478 ft 438 kts 322°
2026-05-05 00:11 23.60842 -98.88294 30708 ft 439 kts 322°
2026-05-05 00:11 23.63328 -98.90243 30910 ft 441 kts 322°
2026-05-05 00:11 23.65817 -98.92191 31228 ft 440 kts 322°
2026-05-05 00:11 23.68360 -98.94046 31546 ft 441 kts 328°
2026-05-05 00:12 23.71158 -98.95445 31851 ft 445 kts 338°
2026-05-05 00:12 23.74166 -98.96294 32150 ft 449 kts 347°
2026-05-05 00:12 23.77281 -98.96694 32446 ft 451 kts 350°
2026-05-05 00:12 23.80402 -98.97059 32760 ft 451 kts 349°
2026-05-05 00:13 23.83508 -98.97425 33120 ft 449 kts 349°
2026-05-05 00:13 23.86603 -98.97790 33485 ft 448 kts 349°
2026-05-05 00:13 23.89708 -98.98157 33785 ft 448 kts 349°
2026-05-05 00:14 23.95832 -98.98877 33855 ft 437 kts 349°
2026-05-05 00:14 24.01849 -98.99582 33855 ft 434 kts 348°
2026-05-05 00:15 24.07858 -99.00299 33858 ft 434 kts 348°
2026-05-05 00:15 24.13845 -99.01009 33869 ft 434 kts 348°
2026-05-05 00:16 24.19863 -99.01727 33860 ft 435 kts 348°
2026-05-05 00:16 24.25877 -99.02444 33870 ft 435 kts 348°
2026-05-05 00:17 24.31911 -99.03166 33798 ft 441 kts 348°
2026-05-05 00:17 24.34961 -99.03532 32544 ft 443 kts 348°
2026-05-05 00:17 24.38097 -99.03909 31369 ft 458 kts 349°
2026-05-05 00:17 24.41230 -99.04280 31170 ft 445 kts 349°
2026-05-05 00:18 24.44252 -99.04630 31131 ft 432 kts 349°
2026-05-05 00:18 24.47246 -99.04982 30408 ft 434 kts 349°
2026-05-05 00:18 24.50234 -99.05339 29880 ft 431 kts 349°
2026-05-05 00:18 24.53206 -99.05697 29302 ft 427 kts 349°
2026-05-05 00:19 24.56147 -99.06051 28784 ft 423 kts 349°
2026-05-05 00:19 24.59054 -99.06401 28269 ft 418 kts 349°
2026-05-05 00:19 24.61929 -99.06747 27760 ft 414 kts 349°
2026-05-05 00:19 24.64774 -99.07089 27266 ft 411 kts 349°
2026-05-05 00:20 24.67604 -99.07426 26774 ft 407 kts 349°
2026-05-05 00:20 24.70408 -99.07761 26310 ft 403 kts 349°
2026-05-05 00:20 24.73182 -99.08095 25841 ft 399 kts 349°
2026-05-05 00:20 24.75929 -99.08426 25374 ft 396 kts 349°
2026-05-05 00:21 24.78651 -99.08753 25014 ft 389 kts 349°
2026-05-05 00:21 24.81254 -99.09065 24923 ft 375 kts 349°
2026-05-05 00:21 24.83800 -99.09368 24840 ft 361 kts 349°
2026-05-05 00:21 24.86295 -99.09665 24767 ft 353 kts 349°
2026-05-05 00:22 24.88711 -99.09963 24698 ft 355 kts 347°
2026-05-05 00:22 24.91111 -99.10544 24632 ft 351 kts 338°
2026-05-05 00:22 24.93366 -99.11545 24558 ft 347 kts 329°
2026-05-05 00:22 24.95420 -99.12916 24490 ft 344 kts 321°
2026-05-05 00:23 24.97230 -99.14620 24415 ft 341 kts 312°
2026-05-05 00:23 24.98847 -99.16532 24359 ft 341 kts 311°
2026-05-05 00:23 25.00462 -99.18449 24281 ft 341 kts 311°
2026-05-05 00:23 25.02078 -99.20358 24215 ft 341 kts 311°
2026-05-05 00:24 25.03694 -99.22265 24148 ft 341 kts 311°
2026-05-05 00:24 25.05310 -99.24177 24087 ft 339 kts 311°
2026-05-05 00:24 25.06913 -99.26075 24024 ft 338 kts 311°
2026-05-05 00:24 25.08516 -99.27973 23956 ft 337 kts 311°
2026-05-05 00:25 25.10068 -99.29811 23888 ft 337 kts 311°
2026-05-05 00:25 25.11658 -99.31699 23823 ft 337 kts 311°
2026-05-05 00:25 25.13254 -99.33595 23760 ft 336 kts 311°
2026-05-05 00:25 25.14844 -99.35488 23694 ft 336 kts 311°
2026-05-05 00:26 25.16432 -99.37383 23492 ft 336 kts 311°
2026-05-05 00:26 25.18016 -99.39271 23088 ft 334 kts 311°
2026-05-05 00:26 25.19603 -99.41134 22682 ft 332 kts 314°
2026-05-05 00:26 25.21398 -99.42727 22260 ft 333 kts 324°
2026-05-05 00:27 25.23414 -99.43922 21850 ft 333 kts 332°
2026-05-05 00:27 25.25511 -99.44990 21429 ft 331 kts 332°
2026-05-05 00:27 25.27596 -99.46063 21010 ft 329 kts 332°
2026-05-05 00:27 25.28995 -99.46787 20730 ft 328 kts 331°
2026-05-05 00:28 25.31721 -99.48202 20169 ft 326 kts 331°
2026-05-05 00:28 25.33768 -99.49263 19759 ft 324 kts 330°
2026-05-05 00:28 25.35804 -99.50317 19336 ft 323 kts 331°
2026-05-05 00:28 25.37179 -99.51029 19059 ft 322 kts 331°
2026-05-05 00:29 25.39206 -99.52079 18659 ft 322 kts 331°
2026-05-05 00:29 25.41233 -99.53131 18238 ft 321 kts 331°
2026-05-05 00:29 25.43249 -99.54177 17804 ft 320 kts 331°
2026-05-05 00:29 25.45254 -99.55218 17406 ft 317 kts 331°
2026-05-05 00:30 25.47221 -99.56240 17014 ft 315 kts 331°
2026-05-05 00:30 25.49194 -99.57266 16724 ft 312 kts 331°
2026-05-05 00:30 25.51219 -99.58323 16662 ft 329 kts 331°
2026-05-05 00:30 25.53309 -99.59417 16470 ft 334 kts 331°
2026-05-05 00:31 25.55413 -99.60512 16343 ft 334 kts 331°
2026-05-05 00:31 25.57522 -99.61605 16365 ft 335 kts 331°
2026-05-05 00:31 25.59637 -99.62699 16367 ft 335 kts 331°
2026-05-05 00:31 25.61754 -99.63796 16363 ft 336 kts 331°
2026-05-05 00:32 25.63865 -99.64894 16370 ft 335 kts 331°
2026-05-05 00:32 25.65973 -99.65992 16367 ft 335 kts 331°
2026-05-05 00:32 25.68085 -99.67094 16359 ft 335 kts 331°
2026-05-05 00:32 25.70191 -99.68194 16375 ft 336 kts 331°
2026-05-05 00:33 25.72310 -99.69303 16370 ft 335 kts 331°
2026-05-05 00:33 25.74413 -99.70403 16369 ft 335 kts 331°
2026-05-05 00:33 25.76445 -99.71648 16373 ft 332 kts 321°
2026-05-05 00:33 25.78168 -99.73334 16330 ft 330 kts 309°
2026-05-05 00:34 25.79510 -99.75377 16174 ft 327 kts 300°
2026-05-05 00:34 25.80724 -99.77511 16044 ft 327 kts 300°
2026-05-05 00:34 25.81936 -99.79626 15908 ft 325 kts 300°
2026-05-05 00:34 25.83137 -99.81715 15623 ft 324 kts 301°
2026-05-05 00:35 25.84349 -99.83821 15293 ft 323 kts 301°
2026-05-05 00:35 25.85552 -99.85918 14975 ft 323 kts 300°
2026-05-05 00:35 25.86758 -99.88026 14746 ft 323 kts 300°
2026-05-05 00:35 25.87961 -99.90129 14587 ft 323 kts 300°
2026-05-05 00:36 25.89166 -99.92235 14414 ft 323 kts 300°
2026-05-05 00:36 25.90367 -99.94339 14231 ft 322 kts 300°
2026-05-05 00:36 25.91565 -99.96440 14068 ft 322 kts 300°
2026-05-05 00:36 25.92764 -99.98539 13856 ft 321 kts 300°
2026-05-05 00:37 25.93963 -100.00638 13391 ft 322 kts 300°
2026-05-05 00:37 25.95159 -100.02731 12977 ft 319 kts 300°
2026-05-05 00:37 25.96344 -100.04801 12567 ft 317 kts 300°
2026-05-05 00:37 25.97530 -100.06868 12059 ft 319 kts 300°
2026-05-05 00:38 25.98735 -100.08976 11331 ft 328 kts 301°
2026-05-05 00:38 25.99969 -100.11145 10641 ft 335 kts 301°
2026-05-05 00:38 26.01195 -100.13304 10268 ft 319 kts 300°
2026-05-05 00:38 26.02332 -100.15299 9984 ft 294 kts 300°
2026-05-05 00:39 26.03410 -100.17187 9425 ft 286 kts 300°
2026-05-05 00:39 26.04135 -100.19170 9295 ft 277 kts 277°
2026-05-05 00:39 26.04025 -100.21299 9029 ft 279 kts 252°
2026-05-05 00:39 26.03046 -100.23138 8629 ft 278 kts 226°
2026-05-05 00:40 26.01456 -100.24384 8249 ft 282 kts 211°
2026-05-05 00:40 25.99777 -100.25490 7828 ft 275 kts 212°
2026-05-05 00:40 25.98168 -100.26554 7431 ft 263 kts 211°
2026-05-05 00:40 25.96625 -100.27584 7065 ft 253 kts 211°
2026-05-05 00:41 25.95132 -100.28587 6722 ft 250 kts 211°
2026-05-05 00:41 25.93661 -100.29578 6407 ft 241 kts 211°
2026-05-05 00:41 25.92277 -100.30510 6043 ft 223 kts 209°
2026-05-05 00:41 25.90953 -100.31193 5730 ft 200 kts 188°
2026-05-05 00:42 25.89648 -100.31083 5448 ft 178 kts 156°
2026-05-05 00:42 25.88713 -100.30386 5193 ft 155 kts 131°
2026-05-05 00:42 25.88131 -100.29416 4978 ft 149 kts 121°
2026-05-05 00:42 25.87592 -100.28440 4775 ft 147 kts 121°
2026-05-05 00:43 25.87062 -100.27478 4572 ft 146 kts 121°
2026-05-05 00:43 25.86531 -100.26512 4377 ft 149 kts 121°
2026-05-05 00:43 25.85994 -100.25535 4171 ft 148 kts 120°
2026-05-05 00:43 25.85459 -100.24563 3954 ft 148 kts 120°
2026-05-05 00:44 25.84931 -100.23598 3735 ft 146 kts 120°
2026-05-05 00:44 25.84406 -100.22641 3520 ft 145 kts 120°
2026-05-05 00:44 25.83883 -100.21684 3301 ft 146 kts 120°
2026-05-05 00:44 25.83358 -100.20728 3109 ft 145 kts 120°
2026-05-05 00:45 25.82836 -100.19777 2911 ft 143 kts 122°
2026-05-05 00:45 25.82318 -100.18835 2741 ft 142 kts 122°
2026-05-05 00:45 25.81804 -100.17902 2538 ft 141 kts 122°
2026-05-05 00:45 25.81293 -100.16970 2352 ft 141 kts 122°
2026-05-05 00:46 25.80783 -100.16046 2164 ft 141 kts 122°
2026-05-05 00:46 25.80269 -100.15113 1961 ft 141 kts 120°
2026-05-05 00:46 25.79761 -100.14181 1823 ft 142 kts 119°
2026-05-05 00:46 25.79250 -100.13226 1722 ft 143 kts 118°
2026-05-05 00:47 25.78732 -100.12294 1468 ft 140 kts 118°
2026-05-05 00:47 25.78227 -100.11357 1320 ft 138 kts 121°
2026-05-05 00:47 25.77831 -100.10637 1271 ft 42 kts 120°
2026-05-05 00:47 25.77769 -100.10527 1271 ft 17 kts 124°
2026-05-05 00:48 25.77684 -100.10379 1266 ft 28 kts 122°
2026-05-05 00:48 25.77562 -100.10160 1261 ft 38 kts 121°
2026-05-05 00:48 25.77417 -100.09897 1261 ft 40 kts 121°
2026-05-05 00:48 25.77287 -100.09707 1258 ft 24 kts 163°
2026-05-05 00:49 25.77160 -100.09789 1257 ft 20 kts 257°
2026-05-05 00:49 25.77207 -100.09913 1261 ft 16 kts 306°
2026-05-05 00:49 25.77258 -100.10007 1262 ft 13 kts 303°
2026-05-05 00:49 25.77294 -100.10083 1263 ft 9 kts 298°
2026-05-05 00:50 25.77335 -100.10161 1267 ft 16 kts 301°
2026-05-05 00:50 25.77409 -100.10294 1267 ft 25 kts 302°
2026-05-05 00:50 25.77516 -100.10480 1273 ft 31 kts 302°
2026-05-05 00:50 25.77623 -100.10674 1276 ft 29 kts 300°
2026-05-05 00:51 25.77727 -100.10868 1272 ft 30 kts 301°
2026-05-05 00:51 25.77831 -100.11060 1273 ft 28 kts 301°
2026-05-05 00:51 25.77919 -100.11220 1276 ft 12 kts 296°
2026-05-05 00:51 25.77920 -100.11296 1276 ft 9 kts 245°
2026-05-05 00:52 25.77885 -100.11327 1276 ft 0 kts 212°
2026-05-05 00:52 25.77879 -100.11332 1277 ft 0 kts 212°